User: anonymous   Login
Location: Unspecified
(0.0000°N, 0.0000°E)
Time: 02:52:22
(UTC+00:00)
Language:

Explorer 22 - Orbit

View from above orbital plane
View from above orbital plane
View from above satellite
View from above satellite

Ground track
Ground track

The orbit data is extracted from the following two-line orbital elements,

1   899U 64064A   17232.56148220 +.00000057 +00000-0 +44288-4 0  9991
2   899 079.6896 049.4063 0120774 201.7545 157.8453 13.82027390659710
Epoch (UTC): 20 August 2017 13:28:32
Eccentricity: 0.0120774
inclination: 79.6896°
perigee height: 868 km
apogee height: 1045 km
right ascension of ascending node: 49.4063°
argument of perigee: 201.7545°
revolutions per day: 13.82027390
mean anomaly at epoch: 157.8453°
orbit number at epoch: 65971

The dashed part of the orbit path shows where the satellite is in the earth's shadow,  

DLR